Location: Asheville, NC
(35.6000°N, 82.5500°W)
Time: 03:28:54
(UTC-04:00)

AO-73 - Pass Details

Date: 17 March 2018
Orbit: 582 x 665 km, 97.6° (Epoch: 17 June)

Event Time Altitude Azimuth Distance (km) Brightness Sun altitude
Rises 21:52:07 0° 207° (SSW) 2,859 ? -27.3°
Reaches altitude 10° 21:55:07 10° 230° (SW) 1,944 ? -27.8°
Maximum altitude 21:57:37 15° 266° (W) 1,613 ? -28.3°
Drops below altitude 10° 22:00:06 10° 303° (WNW) 1,927 ? -28.8°
Sets 22:03:03 0° 326° (NNW) 2,822 ? -29.3°
